Wind_Speed
18 18 19 21 23 21 21 22 21 19 18 18 17 16 15 13 12 11 9 8 8 8 7 6 5 4 4 3 2 2 2 2 3 2 2 1 1 0 1 2 2 3 3 3 3 4 4 4 4
16 17 18 21 22 21 22 22 20 19 19 18 16 16 14 12 12 11 10 10 9 8 7 6 5 4 3 3 2 2 2 2 2 2 2 1 1 0 1 1 2 3 3 4 4 4 4 4 4
15 15 18 21 21 21 22 22 21 21 20 19 17 16 13 12 12 11 11 11 10 9 8 6 5 4 3 2 2 2 2 2 2 2 1 1 1 0 1 1 2 3 3 3 4 4 4 4 4
13 15 19 21 21 22 21 21 20 20 18 18 18 16 14 13 13 12 11 11 11 10 8 7 6 5 4 3 2 2 2 2 2 2 1 1 1 1 1 1 2 3 3 4 4 4 4 4 4
12 14 18 20 21 21 21 21 20 19 18 19 18 17 15 15 14 13 12 12 11 10 8 7 7 5 4 3 2 2 1 2 2 1 1 1 1 1 1 2 2 3 3 4 4 4 3 4 5
11 14 16 19 20 20 20 21 19 18 18 18 18 18 16 15 14 13 12 12 11 10 9 8 7 6 5 4 3 2 1 1 1 1 1 1 1 1 2 2 2 2 3 4 4 3 4 4 5
13 14 16 17 18 18 19 19 18 19 19 19 19 19 17 15 14 13 12 12 11 11 10 9 8 7 5 4 4 3 1 1 1 1 1 1 1 1 1 2 2 2 3 4 4 4 4 5 5
15 14 14 16 16 16 18 18 18 19 19 19 20 19 18 16 14 13 12 12 12 11 10 9 8 7 6 5 4 3 2 0 0 0 0 1 1 1 1 1 2 3 4 4 4 4 4 5 5
13 13 13 13 12 13 15 17 17 18 19 20 20 19 18 16 15 14 13 12 12 11 11 10 9 8 7 5 4 3 3 2 0 0 1 1 1 2 2 2 3 3 3 4 4 4 4 4 5
11 10 10 11 9 10 13 15 16 17 18 19 18 18 18 17 16 14 13 13 12 12 11 10 9 8 7 5 5 4 3 3 1 1 2 2 2 2 2 2 3 3 3 3 3 4 4 5 5
8 7 7 8 7 8 10 13 15 17 18 18 18 18 17 17 16 15 14 12 12 12 11 10 9 8 6 5 4 4 4 3 2 1 1 1 2 2 2 2 2 3 4 4 3 3 4 5 5
6 6 6 6 7 7 9 11 14 17 18 18 18 18 17 15 16 15 14 13 12 11 11 11 10 8 7 6 4 4 4 3 2 1 1 1 2 2 2 2 3 3 3 3 2 3 3 5 5
5 5 6 6 7 9 9 10 13 15 17 17 18 18 16 15 15 15 15 15 13 11 11 11 10 8 7 6 4 3 3 3 3 2 1 2 2 2 2 2 3 3 3 2 2 3 3 4 5
6 6 6 6 7 8 9 10 12 14 16 16 17 17 16 16 15 16 16 15 14 13 12 12 11 8 7 6 5 3 3 2 2 2 2 1 1 1 1 2 3 3 3 3 3 3 3 4 4
7 6 6 6 6 8 8 9 11 13 15 16 16 17 16 17 16 16 16 15 14 14 13 12 11 9 6 5 5 3 2 1 1 1 1 1 1 1 2 2 3 3 3 3 3 3 3 4 4
8 7 5 5 5 6 8 9 11 13 15 16 16 16 16 17 16 16 16 15 14 14 13 13 11 9 7 5 4 4 3 1 1 0 0 0 1 2 2 3 3 3 4 4 4 4 3 3 3
8 6 4 2 4 6 8 9 10 12 15 16 17 16 16 16 16 16 15 14 14 13 13 13 11 10 7 6 5 4 3 1 1 1 1 1 2 2 3 3 4 4 4 4 4 4 4 4 4
7 5 2 1 2 5 7 8 9 12 15 16 17 17 16 15 15 15 14 13 13 13 13 12 12 10 9 6 5 4 3 2 2 2 3 2 2 2 3 4 5 5 5 6 6 5 5 5 5
8 7 5 3 3 6 7 8 9 12 14 15 16 16 15 15 14 14 14 13 13 12 12 12 12 11 10 8 5 4 3 3 3 3 3 3 2 2 3 5 5 5 6 7 8 7 6 6 6
9 9 7 5 5 6 7 8 9 10 13 15 16 16 14 15 14 13 13 12 12 12 12 11 11 10 9 8 6 4 4 3 3 3 3 3 3 3 4 5 6 6 7 8 8 9 8 8 8
11 12 11 9 8 8 9 9 10 10 12 14 16 16 16 15 15 14 13 12 11 11 11 11 11 10 9 8 7 5 4 3 3 4 4 3 4 4 5 5 6 6 7 9 9 10 10 10 9
12 12 13 12 11 10 11 11 10 10 11 12 14 15 16 16 15 13 12 11 11 10 11 11 10 10 9 8 6 5 4 3 4 4 4 4 4 5 5 5 6 7 7 8 10 10 10 11 11
13 13 13 13 12 11 12 12 11 11 11 12 13 15 16 16 14 13 12 11 11 10 10 11 10 10 9 7 6 5 4 4 4 4 4 4 5 5 6 6 6 7 8 9 10 11 11 12 12
14 14 13 13 12 11 11 13 11 12 11 11 13 15 16 15 15 14 13 12 11 11 10 10 10 9 8 7 7 6 5 5 5 4 4 5 5 5 6 7 7 7 8 9 10 11 12 13 13
15 15 14 13 12 10 10 11 11 12 12 12 13 15 16 15 14 13 12 12 11 11 10 10 10 9 9 8 7 6 6 5 6 6 5 5 5 5 6 6 6 6 8 9 10 10 12 13 13
16 16 15 14 12 10 10 11 10 11 12 12 12 13 13 13 13 12 11 11 11 10 10 10 10 9 9 9 8 7 6 5 5 6 5 5 5 5 5 6 6 7 7 8 9 10 11 13 13
17 16 16 16 15 13 12 12 11 11 11 11 12 13 13 13 12 11 10 10 10 10 10 10 10 9 9 8 7 6 6 6 5 5 5 5 5 6 6 7 7 8 8 9 10 10 12 12 13
18 17 18 18 17 16 15 14 13 13 12 13 14 13 12 12 13 13 11 8 9 9 9 10 9 8 8 7 7 7 7 6 6 6 6 6 6 7 8 8 8 9 10 10 10 11 12 13 14
19 19 20 19 19 18 17 15 15 14 14 15 15 14 14 13 14 15 13 9 8 9 9 9 8 8 7 7 7 7 7 6 6 6 6 7 7 7 8 9 9 10 10 11 12 12 12 13 14
20 20 20 21 20 20 20 18 17 17 16 16 16 16 17 14 14 15 13 11 11 9 9 10 8 8 8 8 8 8 7 7 7 7 7 7 8 9 9 10 10 11 11 12 12 12 13 14 15
Wind_Direction
79 70 63 59 53 54 54 53 52 52 49 47 42 42 44 45 47 48 48 50 57 65 70 73 76 75 70 63 50 25 4 0 351 336 329 325 346 124 141 144 141 136 133 131 133 130 122 115 111
82 73 65 59 52 53 56 56 55 53 51 49 44 43 44 44 47 50 49 49 54 60 65 67 67 70 69 59 47 17 358 360 356 345 342 329 319 304 172 152 150 146 142 137 133 129 121 116 118
87 75 65 57 52 51 52 52 50 48 48 48 43 41 43 45 48 49 48 49 52 55 57 58 58 62 62 51 37 16 3 5 3 359 353 342 312 275 194 176 173 163 153 143 136 130 121 116 119
87 75 64 55 50 49 49 47 44 44 44 45 43 39 40 41 44 45 46 47 49 51 51 52 52 52 48 39 29 24 20 13 1 354 351 338 312 249 208 212 191 172 159 153 142 132 124 118 118
86 73 63 54 47 45 45 45 39 38 38 41 41 40 42 42 40 39 42 43 45 47 46 48 46 43 41 32 13 12 20 15 359 347 331 296 284 259 236 218 197 181 167 159 148 141 131 126 127
80 71 61 51 45 42 41 41 37 36 34 38 38 38 43 43 39 36 38 41 41 41 41 40 38 35 33 26 15 1 358 11 1 348 325 291 251 243 243 221 196 171 171 163 151 148 138 134 131
80 69 58 49 42 38 37 38 36 37 34 35 36 35 40 43 38 34 36 39 38 36 35 36 33 27 25 23 26 25 348 336 333 342 334 312 269 237 230 216 193 175 169 156 154 152 145 140 134
81 70 56 46 40 35 32 31 30 29 27 29 30 30 32 38 37 35 36 36 37 34 33 33 28 25 22 24 29 32 24 358 229 212 308 287 253 216 195 190 176 166 160 158 156 155 151 147 136
81 74 58 48 39 31 30 26 24 27 26 24 24 23 26 32 33 34 36 34 32 30 29 31 31 26 26 28 31 34 31 14 282 176 198 220 227 214 194 177 164 164 160 162 165 161 157 151 138
85 75 62 54 38 30 30 23 20 21 21 20 20 18 21 26 29 32 32 30 27 26 25 28 31 27 22 24 31 35 32 32 40 191 198 213 213 201 195 183 177 167 162 161 165 167 162 147 142
99 80 65 56 38 26 25 22 17 16 17 18 18 17 19 23 25 29 32 29 25 23 27 30 26 27 25 26 32 39 46 39 44 79 199 194 174 186 201 211 202 182 176 172 174 172 172 164 155
103 88 75 52 32 24 18 18 15 15 14 17 18 16 18 24 26 30 32 34 28 26 26 25 24 24 26 30 36 46 48 44 48 73 145 162 164 188 197 193 193 191 187 184 183 190 193 176 165
120 101 85 48 32 25 20 14 11 9 9 15 16 18 22 22 25 29 32 31 28 27 28 23 21 22 27 29 37 41 48 54 56 68 129 148 164 186 182 182 192 193 193 195 187 187 181 176 165
127 114 96 65 35 22 15 8 4 6 6 11 13 16 21 20 21 22 24 26 27 28 26 22 19 25 30 38 44 46 42 57 57 63 103 135 153 187 183 182 197 201 197 196 196 191 182 173 166
126 108 90 66 36 19 11 6 6 7 8 8 10 11 13 14 15 18 17 18 20 20 20 20 22 30 42 45 39 36 30 52 60 68 71 128 156 190 200 197 202 208 198 188 188 178 173 173 174
121 111 91 67 38 11 0 359 2 5 6 5 7 6 5 6 8 11 13 13 14 15 13 15 21 26 39 45 33 22 19 25 11 75 139 260 237 226 207 221 218 205 200 197 194 198 201 194 190
138 125 109 62 39 356 345 348 353 359 359 358 1 2 1 1 1 4 7 9 10 11 10 10 14 15 20 34 22 6 10 349 320 300 260 277 254 237 213 222 221 209 210 206 204 210 215 215 213
156 145 176 304 358 336 325 328 341 350 352 351 353 356 356 355 354 356 359 3 4 4 4 5 7 6 8 6 4 3 350 324 296 300 302 293 260 234 216 223 229 224 221 214 215 219 226 226 231
180 173 187 221 284 305 307 310 323 336 342 343 345 348 348 349 351 352 353 357 358 358 0 3 2 3 4 0 351 347 332 317 304 299 300 292 282 245 233 228 233 234 227 221 222 229 233 236 240
200 189 202 219 247 272 283 290 306 325 333 337 338 341 343 341 348 351 349 349 352 354 356 359 358 355 355 356 352 348 338 310 291 280 276 272 271 254 244 236 236 236 231 225 227 234 239 242 248
205 204 214 228 233 248 268 278 299 315 321 327 329 335 341 341 342 344 347 347 347 349 351 354 355 350 348 348 353 340 323 304 288 282 275 265 265 261 254 248 239 240 237 233 234 236 241 245 249
205 214 221 230 234 238 253 267 287 300 309 318 324 332 338 340 339 341 346 346 344 345 346 348 353 352 350 346 345 339 325 303 292 287 274 269 262 259 251 253 246 240 239 237 236 239 245 247 252
218 226 228 230 234 239 251 265 280 288 303 312 320 328 334 339 338 338 341 342 341 339 340 343 349 351 353 349 348 343 325 308 306 288 270 270 271 264 259 264 255 250 249 244 242 245 250 251 253
224 228 229 231 235 238 250 263 269 281 297 306 318 326 328 331 334 336 337 338 337 334 333 338 343 346 350 349 344 338 326 311 305 292 279 273 272 270 266 267 266 261 256 250 250 252 254 256 254
231 230 230 231 233 237 249 265 275 276 286 297 307 317 322 328 331 330 330 329 330 330 328 332 338 340 340 340 333 329 327 309 299 297 282 280 273 276 276 270 270 266 262 258 258 261 264 261 261
236 235 233 231 232 236 248 266 284 286 287 292 300 309 317 322 325 328 324 323 326 328 327 329 330 331 331 329 327 321 316 312 300 296 289 282 276 276 287 276 274 273 273 270 268 270 267 267 266
235 237 233 232 233 238 248 264 279 292 294 298 301 305 311 320 324 323 320 320 323 326 329 330 327 327 329 328 327 321 315 312 305 291 285 285 282 284 289 285 277 279 279 275 273 274 274 273 270
230 234 234 233 234 241 251 264 278 282 290 301 303 306 307 319 325 322 323 317 321 326 331 329 326 327 331 332 328 325 314 305 302 294 293 288 285 287 286 284 278 277 278 277 278 281 278 276 275
227 232 236 238 238 242 251 258 265 279 290 298 301 307 311 322 327 325 318 323 325 326 328 330 331 330 328 329 328 325 320 310 297 291 290 293 293 291 290 288 285 283 281 281 283 285 285 281 279
227 232 237 240 241 243 250 256 262 272 281 290 297 303 313 318 326 328 326 324 328 327 327 329 332 332 330 329 330 331 326 318 307 299 296 295 294 294 294 292 289 287 284 284 286 288 287 285 282
Height
5920 5919 5919 5919 5919 5917 5915 5915 5914 5914 5913 5911 5910 5909 5908 5907 5907 5908 5905 5902 5901 5901 5900 5900 5900 5901 5901 5901 5901 5901 5902 5902 5902 5902 5902 5902 5902 5902 5902 5902 5902 5902 5901 5901 5901 5902 5902 5902 5902
5922 5922 5922 5921 5919 5919 5918 5917 5917 5916 5915 5913 5912 5911 5910 5908 5907 5906 5905 5903 5902 5901 5901 5901 5901 5901 5901 5902 5902 5902 5902 5902 5902 5902 5902 5902 5903 5903 5903 5902 5902 5902 5902 5902 5902 5902 5902 5902 5903
5924 5924 5923 5921 5921 5920 5920 5919 5918 5917 5916 5916 5915 5914 5912 5910 5908 5907 5906 5904 5903 5903 5903 5902 5902 5902 5902 5902 5902 5902 5902 5902 5903 5903 5903 5903 5903 5903 5903 5903 5903 5903 5903 5903 5903 5903 5903 5903 5903
5927 5927 5925 5923 5922 5922 5922 5921 5920 5920 5919 5918 5917 5916 5914 5911 5909 5908 5907 5905 5904 5904 5903 5903 5903 5903 5902 5902 5902 5902 5903 5903 5903 5903 5903 5903 5904 5904 5903 5903 5903 5903 5903 5904 5904 5904 5904 5904 5904
5930 5928 5926 5925 5924 5924 5924 5924 5923 5922 5921 5919 5919 5917 5915 5912 5910 5909 5907 5906 5905 5905 5904 5904 5903 5903 5903 5902 5902 5902 5903 5903 5903 5904 5904 5904 5904 5904 5904 5904 5904 5904 5904 5904 5904 5905 5905 5905 5905
5932 5930 5929 5927 5926 5927 5927 5926 5926 5925 5923 5921 5920 5919 5916 5914 5912 5910 5909 5908 5907 5906 5905 5904 5904 5903 5903 5902 5902 5902 5903 5903 5903 5904 5904 5904 5904 5904 5904 5904 5904 5904 5904 5904 5905 5905 5905 5905 5905
5933 5932 5931 5930 5929 5929 5929 5929 5928 5927 5925 5923 5921 5920 5918 5916 5914 5912 5910 5909 5908 5907 5906 5905 5904 5904 5903 5903 5902 5902 5903 5903 5903 5904 5904 5904 5904 5904 5904 5904 5904 5904 5904 5905 5905 5906 5906 5906 5906
5934 5935 5933 5932 5932 5932 5931 5930 5929 5928 5926 5924 5922 5920 5920 5918 5916 5913 5911 5910 5909 5908 5907 5906 5905 5904 5903 5903 5902 5902 5902 5903 5903 5904 5904 5904 5904 5905 5905 5905 5905 5905 5905 5905 5906 5906 5906 5906 5907
5936 5937 5935 5934 5935 5934 5933 5932 5931 5929 5928 5925 5923 5922 5920 5918 5916 5914 5912 5911 5910 5908 5907 5906 5905 5904 5903 5903 5903 5902 5902 5902 5903 5903 5904 5904 5905 5905 5905 5905 5905 5905 5905 5906 5906 5906 5907 5907 5907
5937 5938 5937 5937 5937 5936 5935 5934 5933 5931 5929 5927 5925 5923 5920 5918 5917 5915 5914 5912 5910 5909 5907 5906 5905 5904 5903 5903 5903 5902 5902 5902 5902 5903 5903 5904 5904 5905 5905 5905 5905 5906 5906 5906 5906 5907 5907 5907 5908
5939 5939 5938 5938 5938 5937 5937 5936 5934 5933 5931 5929 5927 5924 5921 5918 5917 5916 5915 5913 5912 5910 5908 5906 5905 5904 5903 5903 5902 5902 5902 5902 5902 5903 5903 5904 5904 5905 5905 5906 5906 5906 5906 5906 5907 5907 5907 5908 5908
5939 5939 5939 5939 5939 5939 5938 5937 5936 5934 5932 5930 5927 5924 5921 5919 5918 5917 5916 5914 5913 5911 5909 5907 5905 5904 5903 5903 5902 5902 5902 5903 5903 5903 5903 5904 5904 5905 5905 5905 5906 5906 5906 5907 5907 5907 5908 5908 5909
5939 5939 5940 5940 5939 5939 5939 5938 5937 5935 5933 5931 5928 5925 5922 5921 5919 5918 5916 5915 5913 5911 5910 5908 5906 5904 5904 5903 5903 5903 5903 5903 5903 5903 5903 5904 5904 5905 5905 5905 5906 5906 5906 5907 5907 5908 5908 5908 5909
5939 5940 5940 5941 5940 5940 5940 5939 5938 5936 5934 5932 5929 5927 5924 5923 5921 5919 5917 5915 5914 5912 5910 5908 5906 5905 5904 5903 5903 5903 5903 5903 5903 5903 5903 5904 5904 5904 5905 5905 5906 5906 5906 5907 5907 5908 5908 5909 5909
5939 5941 5941 5941 5941 5941 5941 5940 5938 5936 5935 5933 5931 5928 5926 5924 5922 5920 5918 5916 5914 5912 5910 5909 5907 5905 5904 5904 5903 5903 5903 5903 5903 5903 5903 5903 5904 5904 5904 5905 5905 5905 5906 5906 5907 5908 5908 5909 5909
5940 5941 5941 5942 5941 5941 5942 5940 5939 5937 5935 5934 5932 5930 5927 5925 5922 5920 5918 5916 5913 5912 5910 5909 5907 5905 5904 5904 5904 5903 5903 5903 5903 5903 5903 5903 5903 5903 5904 5904 5905 5905 5905 5906 5907 5908 5908 5909 5909
5940 5940 5940 5941 5941 5941 5941 5939 5938 5937 5936 5934 5932 5930 5928 5925 5923 5921 5918 5916 5914 5912 5910 5909 5907 5905 5904 5903 5903 5903 5902 5902 5902 5902 5902 5902 5902 5902 5903 5903 5904 5904 5905 5906 5907 5907 5908 5908 5908
5939 5939 5940 5940 5941 5941 5940 5939 5938 5937 5936 5934 5932 5930 5928 5926 5924 5921 5919 5917 5915 5913 5911 5909 5907 5905 5903 5902 5902 5902 5901 5901 5901 5901 5901 5901 5901 5901 5902 5902 5903 5903 5904 5905 5906 5906 5907 5907 5908
5937 5938 5938 5939 5939 5940 5939 5938 5937 5936 5935 5934 5932 5931 5928 5926 5924 5922 5919 5917 5915 5913 5911 5909 5907 5905 5904 5902 5902 5901 5901 5900 5900 5900 5900 5900 5900 5900 5900 5901 5901 5902 5903 5904 5905 5905 5906 5906 5907
5936 5937 5938 5938 5939 5938 5937 5937 5936 5935 5934 5933 5932 5930 5928 5926 5924 5922 5920 5917 5915 5913 5911 5909 5907 5905 5904 5902 5901 5900 5900 5899 5899 5899 5899 5899 5899 5899 5899 5900 5900 5901 5902 5902 5903 5904 5904 5905 5905
5934 5936 5936 5936 5937 5937 5936 5936 5935 5934 5933 5933 5932 5930 5928 5926 5924 5921 5919 5917 5915 5913 5911 5909 5907 5905 5903 5901 5900 5899 5899 5898 5898 5898 5898 5898 5898 5898 5898 5898 5899 5899 5900 5900 5901 5902 5903 5903 5903
5932 5933 5934 5934 5935 5935 5935 5935 5934 5933 5932 5932 5931 5930 5928 5925 5922 5920 5918 5916 5914 5912 5910 5908 5906 5904 5902 5901 5899 5898 5898 5897 5896 5896 5896 5897 5897 5897 5897 5897 5897 5898 5898 5898 5899 5899 5900 5900 5901
5930 5930 5931 5932 5933 5934 5933 5933 5933 5931 5931 5930 5929 5928 5926 5924 5921 5919 5917 5915 5913 5912 5910 5907 5905 5903 5902 5900 5899 5898 5897 5897 5896 5895 5895 5896 5896 5896 5896 5896 5896 5896 5896 5896 5896 5897 5897 5898 5898
5927 5928 5929 5929 5930 5931 5931 5931 5930 5929 5929 5928 5927 5926 5924 5922 5920 5918 5915 5914 5912 5910 5908 5906 5904 5902 5901 5900 5898 5897 5896 5895 5894 5894 5894 5894 5894 5894 5894 5894 5894 5894 5894 5894 5894 5894 5894 5894 5895
5923 5925 5927 5927 5928 5929 5928 5928 5928 5927 5927 5926 5925 5924 5922 5921 5918 5916 5914 5912 5910 5909 5907 5905 5903 5901 5900 5899 5898 5896 5895 5893 5893 5893 5893 5893 5892 5892 5892 5892 5892 5892 5891 5891 5891 5891 5891 5891 5891
5920 5922 5924 5925 5925 5925 5925 5925 5926 5925 5924 5924 5923 5922 5920 5919 5917 5914 5912 5910 5908 5906 5905 5903 5901 5900 5898 5897 5896 5895 5894 5893 5892 5892 5891 5891 5891 5891 5890 5890 5890 5889 5889 5889 5889 5888 5888 5888 5888
5916 5918 5920 5920 5921 5921 5922 5922 5922 5922 5921 5921 5921 5919 5918 5916 5914 5911 5909 5907 5905 5904 5903 5901 5899 5898 5896 5895 5894 5893 5892 5891 5891 5890 5890 5890 5889 5889 5888 5887 5887 5887 5887 5886 5886 5885 5885 5884 5884
5912 5914 5915 5916 5917 5918 5918 5919 5919 5918 5918 5918 5917 5916 5914 5913 5911 5908 5906 5903 5903 5902 5900 5899 5897 5895 5894 5893 5892 5891 5891 5890 5889 5889 5888 5888 5887 5887 5886 5885 5885 5884 5884 5884 5883 5882 5882 5881 5881
5907 5909 5911 5912 5913 5914 5915 5917 5916 5915 5915 5915 5914 5914 5912 5911 5909 5907 5904 5901 5901 5900 5899 5897 5895 5894 5893 5892 5891 5890 5889 5888 5888 5887 5886 5886 5885 5885 5884 5883 5882 5882 5881 5880 5880 5879 5878 5877 5877
5902 5904 5906 5908 5910 5910 5911 5915 5912 5912 5912 5912 5912 5911 5910 5908 5907 5905 5903 5901 5901 5899 5897 5896 5894 5892 5891 5890 5889 5888 5887 5886 5885 5885 5884 5883 5883 5882 5881 5880 5879 5879 5878 5877 5876 5875 5874 5873 5873